Regional Weather Roundup
Issued by NWS Cleveland, OH

Home | Current Version | Previous Version | Graphics & Text | Print | Product List | Glossary On
Versions: 1 2 3 4 5 6 7 8 9 10 11 12 13 14 15 16 17 18 19 20 21 22 23 24 25 26 27 28 29 30 31 32 33 34 35 36 37 38 39 40 41 42 43 44 45 46 47 48 49 50
000
ASUS41 KCLE 251312
RWRCLE
OHIO REGIONAL WEATHER ROUNDUP
NATIONAL WEATHER SERVICE WILMINGTON, OH
900 AM EDT SUN SEP 25 2016

NOTE: "FAIR" INDICATES FEW OR NO CLOUDS BELOW 12,000 FEET WITH NO
SIGNIFICANT WEATHER AND/OR OBSTRUCTIONS TO VISIBILITY.

OHZ001>008-015>018-024>027-034-035-043-044-251400-
   NORTHWEST OHIO

CITY           SKY/WX    TMP DP  RH WIND       PRES   REMARKS
DEFIANCE       FAIR      57  49  74 E5        30.19S
FINDLAY        FAIR      57  47  69 E7        30.18S
TOLEDO EXPRESS FAIR      55  51  86 E3        30.19F
TOLEDO EXEC    FAIR      57  49  74 E7        30.21S
LIMA           FAIR      57  52  83 E7        30.18S
$$

OHZ009>014-019>023-028>033-038-089-251400-
   NORTHEAST OHIO

CITY           SKY/WX    TMP DP  RH WIND       PRES   REMARKS
CLE-HOPKINS    FAIR      59  44  57 E8        30.23S
CLE-LAKEFRONT  FAIR      59  43  55 SE8       30.21R
CUY CO. ARPT   MOSUNNY   57  46  67 SE9       30.23R
LORAIN-ELYRIA  FAIR      53  46  77 S3        30.22R
ASHTABULA      FAIR      51  45  79 E8        30.24S
AKRON-CANTON   FAIR      53  46  77 E8        30.21R
WOOSTER        FAIR      53  48  83 E7        30.21S
MANSFIELD      FAIR      54  49  83 E7        30.20R
YOUNGSTOWN     FAIR      52  45  77 E9        30.21S
$$

OHZ042-051>053-060>062-070>072-077>081-251400-
  SOUTHWEST OHIO

CITY           SKY/WX    TMP DP  RH WIND       PRES   REMARKS
CINC-COVINGTON FAIR      66  59  78 E6        30.15S
CINC-LUNKEN    FAIR      64  60  87 NE3       30.16R
HAMILTON       FAIR      64  56  75 CALM      30.16S
DAYTON         FAIR      61  53  75 SE6       30.17F
WRIGHT-PAT AFB MOSUNNY   61  54  77 E5        30.16F
DAYTON GENERAL FAIR      62  54  74 E5        30.15F
WILMINGTON     FAIR      60  55  83 E5        30.16S
$$

OHZ036-037-039>041-045>050-054>059-063>069-073>076-082>088-251400-
  CENTRAL AND SOUTHEAST OHIO

CITY           SKY/WX    TMP DP  RH WIND       PRES   REMARKS
COLUMBUS       FAIR      59  52  77 NE5       30.17S
OSU AIRPORT    FAIR      59  52  77 CALM      30.17S
BOLTON FIELD   SUNNY     61  54  77 CALM      30.18S
RICKENBACK AFB FAIR      57  52  85 NE6       30.17S
NEWARK         FAIR      57  50  77 NE5       30.18S
MARION         FAIR      56  50  80 CALM      30.19S
LANCASTER      FAIR      59  53  80 CALM      30.17F
ZANESVILLE     FAIR      56  50  80 NE5       30.18S
NEW PHILLY     FAIR      55  49  80 E3        30.21R
$$




USA.gov is the U.S. government's official web portal to all federal, state and local government web resources and services.